Regional Weather Roundup
Issued by NWS

Home | Current Version | Previous Version | Text Only | Print | Product List | Glossary On
Versions: 1 2 3 4 5 6 7 8 9 10 11 12 13 14 15 16 17 18 19 20 21 22 23 24 25 26 27 28 29 30 31 32 33 34 35 36 37 38 39 40 41 42 43 44 45 46 47 48 49 50
000
ASUS43 KMPX 230910
RWRMN
WEATHER ROUNDUP FOR MINNESOTA
NATIONAL WEATHER SERVICE TWIN CITIES/CHANHASSEN MN
400 AM CDT SAT JUL 23 2016


NOTE: "FAIR" INDICATES FEW OR NO CLOUDS BELOW 12,000 FEET WITH NO
SIGNIFICANT WEATHER AND/OR OBSTRUCTIONS TO VISIBILITY. N/A MEANS
CURRENT SKY AND/OR WEATHER CONDITIONS ARE NOT AVAILABLE.

MNZ060>063-068>070-231000-
   Twin Cities Metro

CITY           SKY/WX    TMP DP  RH WIND       PRES   REMARKS
TWIN CITIES    PTCLDY    77  66  68 E7        29.96R
ST PAUL        CLEAR     73  68  84 CALM      29.96R
CRYSTAL        PTCLDY    70  65  84 CALM      29.95S
BLAINE         PTCLDY    72  68  88 CALM      29.97R
LAKEVILLE      CLEAR     68  68 100 CALM      29.96R
EDEN PRAIRIE   CLEAR     76  68  76 NE5       29.95R
LAKEVILLE      CLEAR     68  68 100 CALM      29.96R
SOUTH ST PAUL  CLEAR     73  68  87 CALM      29.96R
LAKE ELMO      FAIR      68  66  94 CALM      29.98R
$$
MNZ001>005-007-008-013>017-022>024-027-028-231000-
   Northwest Minnesota

CITY           SKY/WX    TMP DP  RH WIND       PRES   REMARKS
BEMIDJI        CLOUDY    64  61  88 CALM      30.00F
HALLOCK        CLOUDY    66  63  88 E9        29.91F
ROSEAU         CLOUDY    61  55  82 E6        29.97F
WARROAD        CLOUDY    61  57  88 CALM      29.98F
THIEF RVR FALL CLOUDY    68  60  75 E7        29.98S
CROOKSTON      LGT RAIN  70  63  78 E8        29.93F
FOSSTON        CLOUDY    64  63  94 E3        29.97F
DETROIT LAKES  CLOUDY    73  61  64 SE8       29.98F
MOORHEAD       MOCLDY    73  64  73 SE7       29.95R
PARK RAPIDS    CLOUDY    72  63  73 E6        30.00S
MAHNOMEN       FAIR      70  62  74 SE6       29.96F
$$
MNZ006-009>011-018-025>026-231000-
   North Central Minnesota

CITY           SKY/WX    TMP DP  RH WIND       PRES   REMARKS
BAUDETTE       CLOUDY    61  59  93 CALM      30.00S
FLAG ISLAND    CLOUDY    70  63  78 CALM      29.99S
INTL FALLS     CLOUDY    58  56  93 CALM      30.00F
WASKISH        MOCLDY    61  59  94 CALM      30.00F
BIG FORK       MOCLDY    57  55  94 CALM      30.02S
LONGVILLE      CLOUDY    63  63 100 CALM      30.00F
GRAND RAPIDS   CLOUDY    62  61  96 CALM      30.04S
CRANE LAKE     PTCLDY    54  54 100 S1        30.03S
ORR            PTCLDY    57  55  94 CALM      30.00S
COOK           MOCLDY    55  55 100 CALM      30.03S
WALKER         FAIR      64  62  94 CALM      30.00F
$$
MNZ012-019>021-037-231000-
   Northeast Minnesota

CITY           SKY/WX    TMP DP  RH WIND       PRES   REMARKS
DULUTH         PTCLDY    64  60  87 CALM      30.02R
ELY            CLOUDY    55  55 100 CALM      30.03S
HIBBING        CLOUDY    56  56 100 CALM      30.02S
EVELETH        MOCLDY    58  57  97 CALM      30.03F
DULUTH HARBOR  PTCLDY    72  63  73 CALM      30.00R
TWO HARBORS    PTCLDY    64  59  82 CALM      29.99R
SILVER BAY     PTCLDY    59  57  94 CALM      30.00R
GRAND MARAIS     N/A     73  55  53 N10       29.96R
G MARAIS ARPRT MOCLDY    57  54  88 N6        30.04R
$$
MNZ029>031-032-039>041-046>048-054>057-064-231000-
   West Central Minnesota

CITY           SKY/WX    TMP DP  RH WIND       PRES   REMARKS
FERGUS FALLS   PTCLDY    75  66  73 E8        29.96F
WHEATON        CLOUDY    72  70  94 E5        29.94F
MORRIS         CLOUDY    75  66  73 E8        29.94S
ALEXANDRIA     PTCLDY    74  68  81 E7        30.00R
ELBOW LAKE     FAIR      74  69  81 E8        29.97S
WADENA         MOCLDY    68  63  83 E5        29.99F
GLENWOOD       CLOUDY    70  66  88 NE7       29.99R
APPLETON       MOCLDY    73  66  78 E3        29.92F
BENSON         CLOUDY    73  64  73 E7        29.94S
ORTONVILLE     CLOUDY    73  68  83 NE6       29.93F
MADISON        MOCLDY    72  70  94 CALM      29.92S
WILLMAR        FAIR      75  66  73 E6        29.96S
$$
MNZ033>034-036-042>043-049>051-058-059-231000-
   Central Minnesota

CITY           SKY/WX    TMP DP  RH WIND       PRES   REMARKS
ST CLOUD       MOCLDY    72  66  81 SE6       29.97S
SAUK CENTRE    FAIR      70  67  90 CALM      29.99R
PAYNESVILLE    CLOUDY    69  68  98 CALM      29.97S
AITKIN         HAZE      64  61  88 CALM      30.00F VSB 1
PINE RIVER     CLOUDY    64  64 100 CALM      30.04S
BRAINERD       CLOUDY    70  64  81 CALM      30.00F
STAPLES        CLOUDY    68  63  83 CALM      30.00S
LONG PRAIRIE   FAIR      70  68  94 CALM      30.00R
LITTLE FALLS   MOCLDY    70  66  88 CALM      29.99R
LITCHFIELD     PTCLDY    73  70  88 CALM      29.96S
BUFFALO        PTCLDY    70  64  82 CALM      29.97S
MAPLE LAKE     PTCLDY    70  67  92 CALM      29.98R
HUTCHINSON     CLOUDY    74  68  81 E5        29.97R
$$
MNZ037-044-045-052-053-231000-
   East Central Minnesota

CITY           SKY/WX    TMP DP  RH WIND       PRES   REMARKS
PRINCETON      PTCLDY    70  66  88 NE3       29.98S
MORA           PTCLDY    64  64 100 CALM      30.01S
CAMBRIDGE      CLOUDY    70  63  78 CALM      29.97S
RUSH CITY      PTCLDY    68  66  93 CALM      29.99S
MOOSE LAKE     PTCLDY    61  61 100 CALM      30.00S
HINCKLEY       FAIR      68  64  88 CALM      30.00S
CLOQUET        PTCLDY    63  57  82 CALM      30.03R
MCGREGOR       PTCLDY    64  63  94 CALM      30.02S
$$
MNZ071>073-080-081-089-090-097-098-231000-
   Southwest Minnesota

CITY           SKY/WX    TMP DP  RH WIND       PRES   REMARKS
MONTEVIDEO     MOCLDY    72  70  94 SE5       29.94F
GRANITE FALLS  MOCLDY    75  71  87 E3        29.94S
CANBY          CLOUDY    72  69  91 CALM      29.94R
MARSHALL       CLOUDY    75  73  93 SE3       29.92S
REDWOOD FALLS  CLOUDY    73  70  90 E6        29.92S
OLIVIA         MOCLDY    73  68  83 E7        29.93F
PIPESTONE      MOCLDY    79  77  94 SE5       29.94R
WINDOM         MOCLDY    79  77  94 CALM      29.94R
WORTHINGTON    CLOUDY    78  77  96 SE7       29.95R FOG
JACKSON        CLOUDY    79  75  89 SE7       29.95R FOG
TRACY          CLOUDY    75  74  96 CALM      29.94S
SLAYTON        CLOUDY    77  76  98 SE6       29.95R FOG
$$
MNZ065>067-074>077-082>085-091>093-231000-
   South Central Minnesota

CITY           SKY/WX    TMP DP  RH WIND       PRES   REMARKS
MANKATO        PTCLDY    79  73  83 SE7       29.94S
NEW ULM        PTCLDY    77  75  94 E6        29.93S
ST JAMES       CLOUDY    73  72  94 E5        29.93S
FAIRMONT       CLOUDY    79  55  44 SE9       29.93R
GLENCOE        PTCLDY    74  69  85 E5        29.95R
FARIBAULT      CLOUDY    73  72  94 CALM      29.96R
OWATONNA       CLOUDY    77  73  88 E3        29.97R
WASECA         PTCLDY    77  75  94 E7        29.97S
ALBERT LEA     MOCLDY    79  77  94 S6        29.96S
$$
MNZ078>079-086>088-094>096-231000-
   Southeast Minnesota

CITY           SKY/WX    TMP DP  RH WIND       PRES   REMARKS
ROCHESTER      PTCLDY    75  75 100 SE3       30.00R FOG
RED WING       CLEAR     70  66  88 CALM      29.95S
STANTON        CLEAR     70  68  94 CALM      29.95R
DODGE CENTER   CLEAR     75  73  94 SE7       29.99R
WINONA         CLEAR     73  72  94 CALM      29.96F
AUSTIN         PTCLDY    75  73  94 S5        29.97R
PRESTON        MOCLDY    75  73  94 SE3       29.99F
$$
ABBREVIATIONS USED IN REMARKS
   TC - TEMPERATURES IN CELSIUS
  WCI - WIND CHILL INDEX
   HX - HEAT INDEX
  VSB - VISIBILITY
$$




USA.gov is the U.S. government's official web portal to all federal, state and local government web resources and services.